CZ-2D R/B, 41858

Orbit data source: Space-Track

CZ-2D R/B, 41858 is space debris in SSO originally from a launch on Fri, 11 Nov 2016 UTC launched from the Jiuquan Satellite Launch Center, China (JSC). Debris objects in space refer to the collection of defunct objects orbiting the Earth. Examples of debris include non-operational satellites, rocket bodies, and fragments generated from explosions, collisions, or faulty payload assembly.

Loading next visibility...
CZ-2D R/B details
Identifier
41858, 2016-068B
Orbit
SSO
Last TLE update11 hours ago
Origin
Flag of CNCNSA (CN / PRC)
ManufacturerBWYIC
MissionSpacecraft
Bus & MotorCZ-2 STAGE 2, Unknown motor
Mass4,006 kg wet, 4,006 kg dry
Launch date (UTC)
2016-11-11 (8 years ago)
Launch vehicleUnknown
Launch site
Jiuquan Satellite Launch Center, China (JSC)
Object type
Payload
Rocket body
Debris
Shape & HBRCyl + 1 Sail, 8 m
Radar Cross Section25.456 m², Large (>1 m²)

Expand to show TLE details & history

TLE from 11 hours ago
0 CZ-2D R/B
1 41858U 16068B   24360.98263651  .00000559  00000-0  20352-3 0  9996
2 41858  98.6128 353.8669 0032853 339.5831  20.4039 14.36768407425673
Epoch: 2024-12-25T23:34Z
Definitive object data (Epoch: 2024-12-25T23:34:59.794Z)
Latitude-0.00008°
Longitude-94.8508°
Altitude750.133 km
Speed7.491 km/s
True Right ascension23h 35m 28s
True Declination0° 00' 00"
Sunlit
Object was in daylight at TLE epoch
Visualization TLE readout
Latitude-14.59823°
Longitude83.356°
Altitude794.057 km
Speed7.446 km/s
Apparent Right ascension14h 04m 06s
Apparent Declination-61° 35' 39"
Sunlit
Object is in daylight
Visualization observer readout
Local Sidereal Time09:52:09
Azimuth152.475° SSE
Elevation-23.497°
Doppler factor1
Orbital elements
Apogee altitude789.799 km
Perigee altitude742.855 km
Semi-major axis7,144.464 km
Eccentricity0.0032853
Inclination98.6128°
RAAN353.8669°
Arg. of periapsis339.5831°
True anomaly20.53566°
Mean anomaly20.4039°
Eccentric anomaly20.46973°
Mean motion3.59409 °/min
BSTAR0.00020352
Orbital period100.16 mins
Loading maneuver chart data...
Loading historical data...
Loading historical data...
Loading historical data...
Loading historical data...
Loading historical data...
Loading historical data...
Loading historical data...

CZ-2D R/B Visibility forecast

Observer location: undefined°, undefined

Span
Click to sort rows by Start time (UTC) header in descending order
Start Az.
Max El. time (UTC)
Max El. Az.
Max El.
End time (UTC)
End Az.
8 mins2024-12-26 11:51:57.376Z36.014° NE2024-12-26 11:55:57.376Z89.15° E27.123°2024-12-26 11:59:57.376Z152.453° SSE
7 mins2024-12-26 13:31:57.376Z344.626° N2024-12-26 13:34:57.376Z298.977° NW27.215°2024-12-26 13:38:57.376Z236.894° WSW
7 mins2024-12-26 23:07:57.376Z125.902° SE2024-12-26 23:10:57.376Z62.131° ENE32.684°2024-12-26 23:14:57.376Z3.623° NNE
5 mins2024-12-27 00:47:57.376Z235.004° WSW2024-12-27 00:49:57.376Z267.134° W20.681°2024-12-27 00:52:57.376Z309.622° NW
|